Year,Month,Day,Hour,Minute,Value (Times are PST for temperature in C)
2014,09,05,00,00,12.00
2014,09,05,00,01,11.90
2014,09,05,00,02,11.90
2014,09,05,00,03,11.90
2014,09,05,00,04,11.90
2014,09,05,00,05,11.90
2014,09,05,00,06,11.90
2014,09,05,00,07,11.90
2014,09,05,00,08,11.90
2014,09,05,00,09,11.80
2014,09,05,00,10,11.80
2014,09,05,00,11,11.80
2014,09,05,00,12,11.80
2014,09,05,00,13,11.80
2014,09,05,00,14,11.80
2014,09,05,00,15,11.80
2014,09,05,00,16,11.80
2014,09,05,00,17,11.80
2014,09,05,00,18,11.80
2014,09,05,00,19,11.80
2014,09,05,00,20,11.80
2014,09,05,00,21,11.80
2014,09,05,00,22,11.80
2014,09,05,00,23,11.80
2014,09,05,00,24,11.80
2014,09,05,00,25,11.80
2014,09,05,00,26,11.70
2014,09,05,00,27,11.70
2014,09,05,00,28,11.70
2014,09,05,00,29,11.70
2014,09,05,00,30,11.70
2014,09,05,00,31,11.70
2014,09,05,00,32,11.70
2014,09,05,00,33,11.70
2014,09,05,00,34,11.60
2014,09,05,00,35,11.60
2014,09,05,00,36,11.60
2014,09,05,00,37,11.60
2014,09,05,00,38,11.60
2014,09,05,00,39,11.60
2014,09,05,00,40,11.60
2014,09,05,00,41,11.60
2014,09,05,00,42,11.50
2014,09,05,00,43,11.50
2014,09,05,00,44,11.50
2014,09,05,00,45,11.50
2014,09,05,00,46,11.40
2014,09,05,00,47,11.40
2014,09,05,00,48,11.40
2014,09,05,00,49,11.40
2014,09,05,00,50,11.40
2014,09,05,00,51,11.40
2014,09,05,00,52,11.40
2014,09,05,00,53,11.30
2014,09,05,00,54,11.30
2014,09,05,00,55,11.30
2014,09,05,00,56,11.30
2014,09,05,00,57,11.30
2014,09,05,00,58,11.30
2014,09,05,00,59,11.30
2014,09,05,01,00,11.30
2014,09,05,01,01,11.30
2014,09,05,01,02,11.30
2014,09,05,01,03,11.30
2014,09,05,01,04,11.30
2014,09,05,01,05,11.30
2014,09,05,01,06,11.30
2014,09,05,01,07,11.30
2014,09,05,01,08,11.30
2014,09,05,01,09,11.30
2014,09,05,01,10,11.30
2014,09,05,01,11,11.30
2014,09,05,01,12,11.30
2014,09,05,01,13,11.30
2014,09,05,01,14,11.30
2014,09,05,01,15,11.30
2014,09,05,01,16,11.20
2014,09,05,01,17,11.20
2014,09,05,01,18,11.20
2014,09,05,01,19,11.20
2014,09,05,01,20,11.20
2014,09,05,01,21,11.20
2014,09,05,01,22,11.20
2014,09,05,01,23,11.10
2014,09,05,01,24,11.10
2014,09,05,01,25,11.10
2014,09,05,01,26,11.10
2014,09,05,01,27,11.10
2014,09,05,01,28,11.10
2014,09,05,01,29,11.10
2014,09,05,01,30,11.10
2014,09,05,01,31,11.10
2014,09,05,01,32,11.10
2014,09,05,01,33,11.10
2014,09,05,01,34,11.10
2014,09,05,01,35,11.00
2014,09,05,01,36,11.00
2014,09,05,01,37,11.00
2014,09,05,01,38,11.00
2014,09,05,01,39,11.00
2014,09,05,01,40,11.00
2014,09,05,01,41,10.90
2014,09,05,01,42,10.90
2014,09,05,01,43,10.90
2014,09,05,01,44,10.90
2014,09,05,01,45,10.90
2014,09,05,01,46,10.90
2014,09,05,01,47,10.90
2014,09,05,01,48,10.90
2014,09,05,01,49,10.90
2014,09,05,01,50,10.90
2014,09,05,01,51,10.80
2014,09,05,01,52,10.80
2014,09,05,01,53,10.80
2014,09,05,01,54,10.80
2014,09,05,01,55,10.80
2014,09,05,01,56,10.80
2014,09,05,01,57,10.80
2014,09,05,01,58,10.80
2014,09,05,01,59,10.80
2014,09,05,02,00,10.80
2014,09,05,02,01,10.80
2014,09,05,02,02,10.80
2014,09,05,02,03,10.80
2014,09,05,02,04,10.80
2014,09,05,02,05,10.80
2014,09,05,02,06,10.70
2014,09,05,02,07,10.70
2014,09,05,02,08,10.70
2014,09,05,02,09,10.70
2014,09,05,02,10,10.70
2014,09,05,02,11,10.70
2014,09,05,02,12,10.70
2014,09,05,02,13,10.70
2014,09,05,02,14,10.70
2014,09,05,02,15,10.60
2014,09,05,02,16,10.60
2014,09,05,02,17,10.60
2014,09,05,02,18,10.60
2014,09,05,02,19,10.60
2014,09,05,02,20,10.60
2014,09,05,02,21,10.60
2014,09,05,02,22,10.60
2014,09,05,02,23,10.60
2014,09,05,02,24,10.60
2014,09,05,02,25,10.60
2014,09,05,02,26,10.60
2014,09,05,02,27,10.50
2014,09,05,02,28,10.50
2014,09,05,02,29,10.50
2014,09,05,02,30,10.50
2014,09,05,02,31,10.50
2014,09,05,02,32,10.50
2014,09,05,02,33,10.50
2014,09,05,02,34,10.50
2014,09,05,02,35,10.50
2014,09,05,02,36,10.50
2014,09,05,02,37,10.50
2014,09,05,02,38,10.50
2014,09,05,02,39,10.50
2014,09,05,02,40,10.50
2014,09,05,02,41,10.40
2014,09,05,02,42,10.40
2014,09,05,02,43,10.40
2014,09,05,02,44,10.40
2014,09,05,02,45,10.40
2014,09,05,02,46,10.40
2014,09,05,02,47,10.30
2014,09,05,02,48,10.30
2014,09,05,02,49,10.30
2014,09,05,02,50,10.30
2014,09,05,02,51,10.30
2014,09,05,02,52,10.30
2014,09,05,02,53,10.30
2014,09,05,02,54,10.30
2014,09,05,02,55,10.30
2014,09,05,02,56,10.30
2014,09,05,02,57,10.30
2014,09,05,02,58,10.30
2014,09,05,02,59,10.30
2014,09,05,03,00,10.30
2014,09,05,03,01,10.30
2014,09,05,03,02,10.30
2014,09,05,03,03,10.20
2014,09,05,03,04,10.20
2014,09,05,03,05,10.20
2014,09,05,03,06,10.20
2014,09,05,03,07,10.20
2014,09,05,03,08,10.20
2014,09,05,03,09,10.20
2014,09,05,03,10,10.20
2014,09,05,03,11,10.20
2014,09,05,03,12,10.10
2014,09,05,03,13,10.10
2014,09,05,03,14,10.10
2014,09,05,03,15,10.10
2014,09,05,03,16,10.10
2014,09,05,03,17,10.10
2014,09,05,03,18,10.10
2014,09,05,03,19,10.10
2014,09,05,03,20,10.10
2014,09,05,03,21,10.10
2014,09,05,03,22,10.00
2014,09,05,03,23,10.00
2014,09,05,03,24,10.00
2014,09,05,03,25,10.00
2014,09,05,03,26,10.00
2014,09,05,03,27,10.00
2014,09,05,03,28,10.00
2014,09,05,03,29,10.00
2014,09,05,03,30,10.00
2014,09,05,03,31,10.00
2014,09,05,03,32,10.00
2014,09,05,03,33,9.90
2014,09,05,03,34,9.90
2014,09,05,03,35,9.90
2014,09,05,03,36,9.90
2014,09,05,03,37,9.90
2014,09,05,03,38,9.90
2014,09,05,03,39,9.90
2014,09,05,03,40,9.90
2014,09,05,03,41,9.90
2014,09,05,03,42,9.90
2014,09,05,03,43,9.90
2014,09,05,03,44,9.90
2014,09,05,03,45,9.80
2014,09,05,03,46,9.80
2014,09,05,03,47,9.80
2014,09,05,03,48,9.80
2014,09,05,03,49,9.80
2014,09,05,03,50,9.80
2014,09,05,03,51,9.80
2014,09,05,03,52,9.80
2014,09,05,03,53,9.90
2014,09,05,03,54,9.90
2014,09,05,03,55,9.90
2014,09,05,03,56,9.90
2014,09,05,03,57,9.90
2014,09,05,03,58,9.90
2014,09,05,03,59,9.90
2014,09,05,04,00,9.90
2014,09,05,04,01,9.90
2014,09,05,04,02,9.90
2014,09,05,04,03,9.90
2014,09,05,04,04,9.90
2014,09,05,04,05,9.90
2014,09,05,04,06,9.90
2014,09,05,04,07,9.90
2014,09,05,04,08,9.90
2014,09,05,04,09,9.90
2014,09,05,04,10,9.90
2014,09,05,04,11,9.90
2014,09,05,04,12,9.90
2014,09,05,04,13,9.90
2014,09,05,04,14,9.90
2014,09,05,04,15,9.90
2014,09,05,04,16,9.90
2014,09,05,04,17,9.90
2014,09,05,04,18,9.90
2014,09,05,04,19,9.90
2014,09,05,04,20,9.90
2014,09,05,04,21,9.90
2014,09,05,04,22,9.90
2014,09,05,04,23,9.90
2014,09,05,04,24,9.90
2014,09,05,04,25,9.90
2014,09,05,04,26,9.90
2014,09,05,04,27,9.90
2014,09,05,04,28,9.90
2014,09,05,04,29,9.90
2014,09,05,04,30,9.90
2014,09,05,04,31,9.90
2014,09,05,04,32,9.90
2014,09,05,04,33,9.90
2014,09,05,04,34,9.80
2014,09,05,04,35,9.80
2014,09,05,04,36,9.80
2014,09,05,04,37,9.80
2014,09,05,04,38,9.80
2014,09,05,04,39,9.80
2014,09,05,04,40,9.80
2014,09,05,04,41,9.80
2014,09,05,04,42,9.80
2014,09,05,04,43,9.70
2014,09,05,04,44,9.70
2014,09,05,04,45,9.70
2014,09,05,04,46,9.70
2014,09,05,04,47,9.70
2014,09,05,04,48,9.70
2014,09,05,04,49,9.70
2014,09,05,04,50,9.70
2014,09,05,04,51,9.70
2014,09,05,04,52,9.70
2014,09,05,04,53,9.70
2014,09,05,04,54,9.70
2014,09,05,04,55,9.70
2014,09,05,04,56,9.70
2014,09,05,04,57,9.60
2014,09,05,04,58,9.60
2014,09,05,04,59,9.60
2014,09,05,05,00,9.60
2014,09,05,05,01,9.60
2014,09,05,05,02,9.70
2014,09,05,05,03,9.60
2014,09,05,05,04,9.60
2014,09,05,05,05,9.60
2014,09,05,05,06,9.60
2014,09,05,05,07,9.60
2014,09,05,05,08,9.60
2014,09,05,05,09,9.60
2014,09,05,05,10,9.60
2014,09,05,05,11,9.60
2014,09,05,05,12,9.60
2014,09,05,05,13,9.60
2014,09,05,05,14,9.60
2014,09,05,05,15,9.60
2014,09,05,05,16,9.60
2014,09,05,05,17,9.60
2014,09,05,05,18,9.60
2014,09,05,05,19,9.60
2014,09,05,05,20,9.60
2014,09,05,05,21,9.60
2014,09,05,05,22,9.50
2014,09,05,05,23,9.50
2014,09,05,05,24,9.50
2014,09,05,05,25,9.50
2014,09,05,05,26,9.50
2014,09,05,05,27,9.40
2014,09,05,05,28,9.40
2014,09,05,05,29,9.40
2014,09,05,05,30,9.40
2014,09,05,05,31,9.40
2014,09,05,05,32,9.40
2014,09,05,05,33,9.40
2014,09,05,05,34,9.40
2014,09,05,05,35,9.40
2014,09,05,05,36,9.40
2014,09,05,05,37,9.40
2014,09,05,05,38,9.40
2014,09,05,05,39,9.40
2014,09,05,05,40,9.30
2014,09,05,05,41,9.30
2014,09,05,05,42,9.30
2014,09,05,05,43,9.30
2014,09,05,05,44,9.30
2014,09,05,05,45,9.30
2014,09,05,05,46,9.30
2014,09,05,05,47,9.20
2014,09,05,05,48,9.20
2014,09,05,05,49,9.20
2014,09,05,05,50,9.20
2014,09,05,05,51,9.20
2014,09,05,05,52,9.10
2014,09,05,05,53,9.10
2014,09,05,05,54,9.10
2014,09,05,05,55,9.10
2014,09,05,05,56,9.10
2014,09,05,05,57,9.10
2014,09,05,05,58,9.10
2014,09,05,05,59,9.00
2014,09,05,06,00,9.10
2014,09,05,06,01,9.10
2014,09,05,06,02,9.00
2014,09,05,06,03,9.00
2014,09,05,06,04,9.10
2014,09,05,06,05,9.10
2014,09,05,06,06,9.10
2014,09,05,06,07,9.10
2014,09,05,06,08,9.10
2014,09,05,06,09,9.10
2014,09,05,06,10,9.10
2014,09,05,06,11,9.10
2014,09,05,06,12,9.20
2014,09,05,06,13,9.20
2014,09,05,06,14,9.20
2014,09,05,06,15,9.20
2014,09,05,06,16,9.20
2014,09,05,06,17,9.20
2014,09,05,06,18,9.20
2014,09,05,06,19,9.20
2014,09,05,06,20,9.20
2014,09,05,06,21,9.20
2014,09,05,06,22,9.20
2014,09,05,06,23,9.20
2014,09,05,06,24,9.20
2014,09,05,06,25,9.20
2014,09,05,06,26,9.20
2014,09,05,06,27,9.20
2014,09,05,06,28,9.20
2014,09,05,06,29,9.10
2014,09,05,06,30,9.10
2014,09,05,06,31,9.10
2014,09,05,06,32,9.10
2014,09,05,06,33,9.10
2014,09,05,06,34,9.10
2014,09,05,06,35,9.10
2014,09,05,06,36,9.10
2014,09,05,06,37,9.20
2014,09,05,06,38,9.20
2014,09,05,06,39,9.20
2014,09,05,06,40,9.20
2014,09,05,06,41,9.20
2014,09,05,06,42,9.20
2014,09,05,06,43,9.20
2014,09,05,06,44,9.20
2014,09,05,06,45,9.20
2014,09,05,06,46,9.20
2014,09,05,06,47,9.20
2014,09,05,06,48,9.20
2014,09,05,06,49,9.20
2014,09,05,06,50,9.20
2014,09,05,06,51,9.20
2014,09,05,06,52,9.20
2014,09,05,06,53,9.20
2014,09,05,06,54,9.20
2014,09,05,06,55,9.20
2014,09,05,06,56,9.30
2014,09,05,06,57,9.30
2014,09,05,06,58,9.30
2014,09,05,06,59,9.30
2014,09,05,07,00,9.30
2014,09,05,07,01,9.30
2014,09,05,07,02,9.30
2014,09,05,07,03,9.30
2014,09,05,07,04,9.40
2014,09,05,07,05,9.40
2014,09,05,07,06,9.40
2014,09,05,07,07,9.40
2014,09,05,07,08,9.50
2014,09,05,07,09,9.50
2014,09,05,07,10,9.60
2014,09,05,07,11,9.60
2014,09,05,07,12,9.60
2014,09,05,07,13,9.60
2014,09,05,07,14,9.60
2014,09,05,07,15,9.60
2014,09,05,07,16,9.60
2014,09,05,07,17,9.60
2014,09,05,07,18,9.60
2014,09,05,07,19,9.60
2014,09,05,07,20,9.60
2014,09,05,07,21,9.70
2014,09,05,07,22,9.70
2014,09,05,07,23,9.70
2014,09,05,07,24,9.70
2014,09,05,07,25,9.80
2014,09,05,07,26,9.80
2014,09,05,07,27,9.80
2014,09,05,07,28,9.90
2014,09,05,07,29,9.90
2014,09,05,07,30,9.90
2014,09,05,07,31,9.90
2014,09,05,07,32,9.90
2014,09,05,07,33,9.90
2014,09,05,07,34,9.90
2014,09,05,07,35,9.90
2014,09,05,07,36,10.00
2014,09,05,07,37,10.00
2014,09,05,07,38,10.00
2014,09,05,07,39,10.10
2014,09,05,07,40,10.10
2014,09,05,07,41,10.20
2014,09,05,07,42,10.20
2014,09,05,07,43,10.20
2014,09,05,07,44,10.20
2014,09,05,07,45,10.20
2014,09,05,07,46,10.20
2014,09,05,07,47,10.30
2014,09,05,07,48,10.30
2014,09,05,07,49,10.30
2014,09,05,07,50,10.40
2014,09,05,07,51,10.40
2014,09,05,07,52,10.40
2014,09,05,07,53,10.40
2014,09,05,07,54,10.40
2014,09,05,07,55,10.40
2014,09,05,07,56,10.50
2014,09,05,07,57,10.50
2014,09,05,07,58,10.60
2014,09,05,07,59,10.60
2014,09,05,08,00,10.60
2014,09,05,08,01,10.70
2014,09,05,08,02,10.70
2014,09,05,08,03,10.70
2014,09,05,08,04,10.80
2014,09,05,08,05,10.80
2014,09,05,08,06,10.90
2014,09,05,08,07,10.90
2014,09,05,08,08,11.00
2014,09,05,08,09,11.00
2014,09,05,08,10,11.00
2014,09,05,08,11,11.10
2014,09,05,08,12,11.10
2014,09,05,08,13,11.10
2014,09,05,08,14,11.20
2014,09,05,08,15,11.20
2014,09,05,08,16,11.30
2014,09,05,08,17,11.30
2014,09,05,08,18,11.30
2014,09,05,08,19,11.40
2014,09,05,08,20,11.40
2014,09,05,08,21,11.50
2014,09,05,08,22,11.50
2014,09,05,08,23,11.60
2014,09,05,08,24,11.60
2014,09,05,08,25,11.70
2014,09,05,08,26,11.80
2014,09,05,08,27,11.80
2014,09,05,08,28,11.90
2014,09,05,08,29,11.90
2014,09,05,08,30,11.90
2014,09,05,08,31,12.00
2014,09,05,08,32,12.00
2014,09,05,08,33,12.10
2014,09,05,08,34,12.10
2014,09,05,08,35,12.10
2014,09,05,08,36,12.10
2014,09,05,08,37,12.20
2014,09,05,08,38,12.20
2014,09,05,08,39,12.20
2014,09,05,08,40,12.20
2014,09,05,08,41,12.20
2014,09,05,08,42,12.30
2014,09,05,08,43,12.30
2014,09,05,08,44,12.30
2014,09,05,08,45,12.30
2014,09,05,08,46,12.40
2014,09,05,08,47,12.40
2014,09,05,08,48,12.50
2014,09,05,08,49,12.60
2014,09,05,08,50,12.70
2014,09,05,08,51,12.70
2014,09,05,08,52,12.80
2014,09,05,08,53,13.00
2014,09,05,08,54,13.00
2014,09,05,08,55,13.10
2014,09,05,08,56,13.20
2014,09,05,08,57,13.20
2014,09,05,08,58,13.30
2014,09,05,08,59,13.40
2014,09,05,09,00,13.40
2014,09,05,09,01,13.50
2014,09,05,09,02,13.60
2014,09,05,09,03,13.70
2014,09,05,09,04,13.80
2014,09,05,09,05,13.80
2014,09,05,09,06,13.90
2014,09,05,09,07,14.00
2014,09,05,09,08,14.10
2014,09,05,09,09,14.20
2014,09,05,09,10,14.30
2014,09,05,09,11,14.40
2014,09,05,09,12,14.40
2014,09,05,09,13,14.50
2014,09,05,09,14,14.60
2014,09,05,09,15,14.70
2014,09,05,09,16,14.70
2014,09,05,09,17,14.80
2014,09,05,09,18,14.90
2014,09,05,09,19,15.00
2014,09,05,09,20,15.10
2014,09,05,09,21,15.20
2014,09,05,09,22,15.30
2014,09,05,09,23,15.40
2014,09,05,09,24,15.60
2014,09,05,09,25,15.70
2014,09,05,09,26,15.80
2014,09,05,09,27,16.00
2014,09,05,09,28,16.10
2014,09,05,09,29,16.30
2014,09,05,09,30,16.50
2014,09,05,09,31,16.70
2014,09,05,09,32,16.80
2014,09,05,09,33,17.00
2014,09,05,09,34,17.10
2014,09,05,09,35,17.30
2014,09,05,09,36,17.40
2014,09,05,09,37,17.60
2014,09,05,09,38,17.70
2014,09,05,09,39,17.90
2014,09,05,09,40,18.00
2014,09,05,09,41,18.20
2014,09,05,09,42,18.30
2014,09,05,09,43,18.50
2014,09,05,09,44,18.60
2014,09,05,09,45,18.70
2014,09,05,09,46,18.80
2014,09,05,09,47,18.90
2014,09,05,09,48,19.00
2014,09,05,09,49,19.10
2014,09,05,09,50,19.20
2014,09,05,09,51,19.30
2014,09,05,09,52,19.30
2014,09,05,09,53,19.40
2014,09,05,09,54,19.50
2014,09,05,09,55,19.50
2014,09,05,09,56,19.50
2014,09,05,09,57,19.60
2014,09,05,09,58,19.70
2014,09,05,09,59,19.70
2014,09,05,10,00,19.70
2014,09,05,10,01,19.80
2014,09,05,10,02,19.80
2014,09,05,10,03,19.80
2014,09,05,10,04,19.90
2014,09,05,10,05,19.90
2014,09,05,10,06,20.00
2014,09,05,10,07,20.00
2014,09,05,10,08,20.10
2014,09,05,10,09,20.10
2014,09,05,10,10,20.10
2014,09,05,10,11,20.10
2014,09,05,10,12,20.20
2014,09,05,10,13,20.20
2014,09,05,10,14,20.20
2014,09,05,10,15,20.30
2014,09,05,10,16,20.30
2014,09,05,10,17,20.40
2014,09,05,10,18,20.40
2014,09,05,10,19,20.40
2014,09,05,10,20,20.50
2014,09,05,10,21,20.50
2014,09,05,10,22,20.60
2014,09,05,10,23,20.60
2014,09,05,10,24,20.60
2014,09,05,10,25,20.60
2014,09,05,10,26,20.60
2014,09,05,10,27,20.70
2014,09,05,10,28,20.70
2014,09,05,10,29,20.80
2014,09,05,10,30,20.80
2014,09,05,10,31,20.80
2014,09,05,10,32,20.90
2014,09,05,10,33,20.90
2014,09,05,10,34,21.00
2014,09,05,10,35,21.00
2014,09,05,10,36,21.10
2014,09,05,10,37,21.10
2014,09,05,10,38,21.20
2014,09,05,10,39,21.20
2014,09,05,10,40,21.20
2014,09,05,10,41,21.30
2014,09,05,10,42,21.30
2014,09,05,10,43,21.30
2014,09,05,10,44,21.40
2014,09,05,10,45,21.40
2014,09,05,10,46,21.50
2014,09,05,10,47,21.50
2014,09,05,10,48,21.50
2014,09,05,10,49,21.60
2014,09,05,10,50,21.60
2014,09,05,10,51,21.70
2014,09,05,10,52,21.70
2014,09,05,10,53,21.70
2014,09,05,10,54,21.80
2014,09,05,10,55,21.80
2014,09,05,10,56,21.80
2014,09,05,10,57,21.80
2014,09,05,10,58,21.80
2014,09,05,10,59,21.80
2014,09,05,11,00,21.80
2014,09,05,11,01,21.70
2014,09,05,11,02,21.70
2014,09,05,11,03,21.60
2014,09,05,11,04,21.60
2014,09,05,11,05,21.60
2014,09,05,11,06,21.60
2014,09,05,11,07,21.60
2014,09,05,11,08,21.60
2014,09,05,11,09,21.60
2014,09,05,11,10,21.50
2014,09,05,11,11,21.50
2014,09,05,11,12,21.50
2014,09,05,11,13,21.60
2014,09,05,11,14,21.60
2014,09,05,11,15,21.60
2014,09,05,11,16,21.60
2014,09,05,11,17,21.60
2014,09,05,11,18,21.70
2014,09,05,11,19,21.70
2014,09,05,11,20,21.70
2014,09,05,11,21,21.70
2014,09,05,11,22,21.70
2014,09,05,11,23,21.70
2014,09,05,11,24,21.80
2014,09,05,11,25,21.80
2014,09,05,11,26,21.80
2014,09,05,11,27,21.90
2014,09,05,11,28,21.90
2014,09,05,11,29,22.00
2014,09,05,11,30,22.10
2014,09,05,11,31,22.10
2014,09,05,11,32,22.20
2014,09,05,11,33,22.20
2014,09,05,11,34,22.20
2014,09,05,11,35,22.20
2014,09,05,11,36,22.20
2014,09,05,11,37,22.20
2014,09,05,11,38,22.20
2014,09,05,11,39,22.20
2014,09,05,11,40,22.20
2014,09,05,11,41,22.20
2014,09,05,11,42,22.20
2014,09,05,11,43,22.30
2014,09,05,11,44,22.40
2014,09,05,11,45,22.50
2014,09,05,11,46,22.60
2014,09,05,11,47,22.60
2014,09,05,11,48,22.70
2014,09,05,11,49,22.80
2014,09,05,11,50,22.80
2014,09,05,11,51,22.80
2014,09,05,11,52,22.80
2014,09,05,11,53,22.80
2014,09,05,11,54,22.90
2014,09,05,11,55,22.90
2014,09,05,11,56,22.90
2014,09,05,11,57,22.90
2014,09,05,11,58,23.00
2014,09,05,11,59,23.00
2014,09,05,12,00,23.00
2014,09,05,12,01,23.10
2014,09,05,12,02,23.10
2014,09,05,12,03,23.10
2014,09,05,12,04,23.10
2014,09,05,12,05,23.10
2014,09,05,12,06,23.10
2014,09,05,12,07,23.00
2014,09,05,12,08,23.00
2014,09,05,12,09,23.00
2014,09,05,12,10,23.00
2014,09,05,12,11,23.10
2014,09,05,12,12,23.10
2014,09,05,12,13,23.20
2014,09,05,12,14,23.20
2014,09,05,12,15,23.20
2014,09,05,12,16,23.20
2014,09,05,12,17,23.20
2014,09,05,12,18,23.10
2014,09,05,12,19,23.10
2014,09,05,12,20,23.10
2014,09,05,12,21,23.10
2014,09,05,12,22,23.10
2014,09,05,12,23,23.10
2014,09,05,12,24,23.10
2014,09,05,12,25,23.20
2014,09,05,12,26,23.30
2014,09,05,12,27,23.40
2014,09,05,12,28,23.40
2014,09,05,12,29,23.60
2014,09,05,12,30,23.70
2014,09,05,12,31,23.70
2014,09,05,12,32,23.70
2014,09,05,12,33,23.80
2014,09,05,12,34,23.80
2014,09,05,12,35,23.90
2014,09,05,12,36,24.00
2014,09,05,12,37,24.00
2014,09,05,12,38,24.00
2014,09,05,12,39,24.00
2014,09,05,12,40,24.00
2014,09,05,12,41,24.00
2014,09,05,12,42,24.00
2014,09,05,12,43,23.90
2014,09,05,12,44,23.80
2014,09,05,12,45,23.70
2014,09,05,12,46,23.70
2014,09,05,12,47,23.70
2014,09,05,12,48,23.80
2014,09,05,12,49,23.70
2014,09,05,12,50,23.60
2014,09,05,12,51,23.60
2014,09,05,12,52,23.60
2014,09,05,12,53,23.60
2014,09,05,12,54,23.60
2014,09,05,12,55,23.70
2014,09,05,12,56,23.70
2014,09,05,12,57,23.70
2014,09,05,12,58,23.70
2014,09,05,12,59,23.70
2014,09,05,13,00,23.70
2014,09,05,13,01,23.70
2014,09,05,13,02,23.60
2014,09,05,13,03,23.60
2014,09,05,13,04,23.60
2014,09,05,13,05,23.60
2014,09,05,13,06,23.60
2014,09,05,13,07,23.60
2014,09,05,13,08,23.60
2014,09,05,13,09,23.60
2014,09,05,13,10,23.60
2014,09,05,13,11,23.50
2014,09,05,13,12,23.60
2014,09,05,13,13,23.60
2014,09,05,13,14,23.60
2014,09,05,13,15,23.70
2014,09,05,13,16,23.80
2014,09,05,13,17,23.80
2014,09,05,13,18,23.80
2014,09,05,13,19,23.90
2014,09,05,13,20,23.90
2014,09,05,13,21,23.90
2014,09,05,13,22,23.90
2014,09,05,13,23,24.00
2014,09,05,13,24,24.00
2014,09,05,13,25,24.00
2014,09,05,13,26,24.00
2014,09,05,13,27,23.90
2014,09,05,13,28,23.90
2014,09,05,13,29,23.90
2014,09,05,13,30,23.90
2014,09,05,13,31,23.90
2014,09,05,13,32,24.00
2014,09,05,13,33,24.00
2014,09,05,13,34,24.10
2014,09,05,13,35,24.10
2014,09,05,13,36,24.20
2014,09,05,13,37,24.30
2014,09,05,13,38,24.30
2014,09,05,13,39,24.30
2014,09,05,13,40,24.30
2014,09,05,13,41,24.40
2014,09,05,13,42,24.40
2014,09,05,13,43,24.50
2014,09,05,13,44,24.60
2014,09,05,13,45,24.60
2014,09,05,13,46,24.70
2014,09,05,13,47,24.70
2014,09,05,13,48,24.70
2014,09,05,13,49,24.70
2014,09,05,13,50,24.70
2014,09,05,13,51,24.80
2014,09,05,13,52,24.80
2014,09,05,13,53,24.80
2014,09,05,13,54,24.90
2014,09,05,13,55,25.00
2014,09,05,13,56,25.10
2014,09,05,13,57,25.20
2014,09,05,13,58,25.20
2014,09,05,13,59,25.30
2014,09,05,14,00,25.40
2014,09,05,14,01,25.40
2014,09,05,14,02,25.50
2014,09,05,14,03,25.50
2014,09,05,14,04,25.50
2014,09,05,14,05,25.50
2014,09,05,14,06,25.50
2014,09,05,14,07,25.50
2014,09,05,14,08,25.50
2014,09,05,14,09,25.50
2014,09,05,14,10,25.50
2014,09,05,14,11,25.50
2014,09,05,14,12,25.40
2014,09,05,14,13,25.40
2014,09,05,14,14,25.50
2014,09,05,14,15,25.60
2014,09,05,14,16,25.60
2014,09,05,14,17,25.60
2014,09,05,14,18,25.70
2014,09,05,14,19,25.70
2014,09,05,14,20,25.70
2014,09,05,14,21,25.70
2014,09,05,14,22,25.60
2014,09,05,14,23,25.60
2014,09,05,14,24,25.60
2014,09,05,14,25,25.60
2014,09,05,14,26,25.50
2014,09,05,14,27,25.40
2014,09,05,14,28,25.30
2014,09,05,14,29,25.30
2014,09,05,14,30,25.30
2014,09,05,14,31,25.30
2014,09,05,14,32,25.30
2014,09,05,14,33,25.40
2014,09,05,14,34,25.40
2014,09,05,14,35,25.50
2014,09,05,14,36,25.50
2014,09,05,14,37,25.60
2014,09,05,14,38,25.60
2014,09,05,14,39,25.60
2014,09,05,14,40,25.60
2014,09,05,14,41,25.50
2014,09,05,14,42,25.50
2014,09,05,14,43,25.50
2014,09,05,14,44,25.60
2014,09,05,14,45,25.60
2014,09,05,14,46,25.70
2014,09,05,14,47,25.70
2014,09,05,14,48,25.70
2014,09,05,14,49,25.80
2014,09,05,14,50,25.80
2014,09,05,14,51,25.80
2014,09,05,14,52,25.90
2014,09,05,14,53,25.90
2014,09,05,14,54,25.90
2014,09,05,14,55,25.90
2014,09,05,14,56,25.90
2014,09,05,14,57,25.90
2014,09,05,14,58,25.90
2014,09,05,14,59,25.80
2014,09,05,15,00,25.80
2014,09,05,15,01,25.80
2014,09,05,15,02,25.80
2014,09,05,15,03,25.80
2014,09,05,15,04,25.80
2014,09,05,15,05,25.90
2014,09,05,15,06,25.90
2014,09,05,15,07,25.90
2014,09,05,15,08,25.90
2014,09,05,15,09,26.00
2014,09,05,15,10,26.00
2014,09,05,15,11,26.00
2014,09,05,15,12,26.00
2014,09,05,15,13,26.00
2014,09,05,15,14,26.00
2014,09,05,15,15,26.10
2014,09,05,15,16,26.10
2014,09,05,15,17,26.20
2014,09,05,15,18,26.20
2014,09,05,15,19,26.10
2014,09,05,15,20,26.10
2014,09,05,15,21,26.00
2014,09,05,15,22,25.90
2014,09,05,15,23,25.80
2014,09,05,15,24,25.90
2014,09,05,15,25,25.90
2014,09,05,15,26,25.90
2014,09,05,15,27,25.80
2014,09,05,15,28,25.80
2014,09,05,15,29,25.80
2014,09,05,15,30,25.90
2014,09,05,15,31,25.90
2014,09,05,15,32,26.00
2014,09,05,15,33,26.10
2014,09,05,15,34,26.20
2014,09,05,15,35,26.20
2014,09,05,15,36,26.30
2014,09,05,15,37,26.30
2014,09,05,15,38,26.40
2014,09,05,15,39,26.40
2014,09,05,15,40,26.40
2014,09,05,15,41,26.30
2014,09,05,15,42,26.30
2014,09,05,15,43,26.30
2014,09,05,15,44,26.20
2014,09,05,15,45,26.20
2014,09,05,15,46,26.20
2014,09,05,15,47,26.20
2014,09,05,15,48,26.10
2014,09,05,15,49,26.10
2014,09,05,15,50,26.20
2014,09,05,15,51,26.20
2014,09,05,15,52,26.20
2014,09,05,15,53,26.10
2014,09,05,15,54,26.10
2014,09,05,15,55,26.10
2014,09,05,15,56,26.10
2014,09,05,15,57,26.00
2014,09,05,15,58,26.00
2014,09,05,15,59,26.00
2014,09,05,16,00,25.90
2014,09,05,16,01,25.90
2014,09,05,16,02,25.90
2014,09,05,16,03,25.90
2014,09,05,16,04,26.00
2014,09,05,16,05,26.00
2014,09,05,16,06,26.10
2014,09,05,16,07,26.10
2014,09,05,16,08,26.10
2014,09,05,16,09,26.10
2014,09,05,16,10,26.10
2014,09,05,16,11,26.10
2014,09,05,16,12,26.10
2014,09,05,16,13,26.10
2014,09,05,16,14,26.10
2014,09,05,16,15,26.10
2014,09,05,16,16,26.10
2014,09,05,16,17,26.10
2014,09,05,16,18,26.10
2014,09,05,16,19,26.10
2014,09,05,16,20,26.10
2014,09,05,16,21,26.10
2014,09,05,16,22,26.10
2014,09,05,16,23,26.10
2014,09,05,16,24,26.10
2014,09,05,16,25,26.10
2014,09,05,16,26,26.10
2014,09,05,16,27,26.20
2014,09,05,16,28,26.10
2014,09,05,16,29,26.10
2014,09,05,16,30,26.10
2014,09,05,16,31,26.10
2014,09,05,16,32,26.10
2014,09,05,16,33,26.10
2014,09,05,16,34,26.20
2014,09,05,16,35,26.20
2014,09,05,16,36,26.20
2014,09,05,16,37,26.20
2014,09,05,16,38,26.20
2014,09,05,16,39,26.20
2014,09,05,16,40,26.20
2014,09,05,16,41,26.20
2014,09,05,16,42,26.20
2014,09,05,16,43,26.20
2014,09,05,16,44,26.30
2014,09,05,16,45,26.30
2014,09,05,16,46,26.30
2014,09,05,16,47,26.30
2014,09,05,16,48,26.20
2014,09,05,16,49,26.20
2014,09,05,16,50,26.20
2014,09,05,16,51,26.30
2014,09,05,16,52,26.30
2014,09,05,16,53,26.30
2014,09,05,16,54,26.30
2014,09,05,16,55,26.30
2014,09,05,16,56,26.30
2014,09,05,16,57,26.30
2014,09,05,16,58,26.30
2014,09,05,16,59,26.30
2014,09,05,17,00,26.20
2014,09,05,17,01,26.10
2014,09,05,17,02,26.10
2014,09,05,17,03,26.10
2014,09,05,17,04,26.10
2014,09,05,17,05,26.10
2014,09,05,17,06,26.10
2014,09,05,17,07,26.20
2014,09,05,17,08,26.20
2014,09,05,17,09,26.20
2014,09,05,17,10,26.30
2014,09,05,17,11,26.30
2014,09,05,17,12,26.30
2014,09,05,17,13,26.30
2014,09,05,17,14,26.30
2014,09,05,17,15,26.30
2014,09,05,17,16,26.30
2014,09,05,17,17,26.30
2014,09,05,17,18,26.30
2014,09,05,17,19,26.30
2014,09,05,17,20,26.30
2014,09,05,17,21,26.30
2014,09,05,17,22,26.30
2014,09,05,17,23,26.20
2014,09,05,17,24,26.20
2014,09,05,17,25,26.20
2014,09,05,17,26,26.20
2014,09,05,17,27,26.20
2014,09,05,17,28,26.20
2014,09,05,17,29,26.10
2014,09,05,17,30,26.10